Snowfall_Accumulation
0.0 0.0 0.0 0.0 0.0 0.0 0.0 0.0 0.0 0.0 0.0 0.0 0.0 0.0 0.0 0.0 0.0 0.0 0.0 0.0 0.0 0.0 0.0 0.0 0.0 0.0 0.0 0.0 0.0 0.0 0.0 0.0 0.0 0.0 0.0 0.0 0.0 0.0 0.0 0.0 0.0 0.0 0.0 0.0
0.0 0.0 0.0 0.0 0.0 0.0 0.0 0.0 0.0 0.0 0.0 0.0 0.0 0.0 0.0 0.0 0.0 0.0 0.0 0.0 0.0 0.0 0.0 0.0 0.0 0.0 0.0 0.0 0.0 0.0 0.0 0.0 0.0 0.0 0.0 0.0 0.0 0.0 0.0 0.0 0.0 0.0 0.0 0.0
0.0 0.0 0.0 0.0 0.0 0.0 0.0 0.0 0.0 0.0 0.0 0.0 0.0 0.0 0.0 0.0 0.0 0.0 0.0 0.0 0.0 0.0 0.0 0.0 0.0 0.0 0.0 0.0 0.0 0.0 0.0 0.0 0.0 0.0 0.0 0.0 0.0 0.0 0.0 0.0 0.0 0.0 0.0 0.0
0.0 0.0 0.0 0.0 0.0 0.0 0.0 0.0 0.0 0.0 0.0 0.0 0.0 0.0 0.0 0.0 0.0 0.0 0.0 0.0 0.0 0.0 0.0 0.0 0.0 0.0 0.0 0.0 0.0 0.0 0.0 0.0 0.0 0.0 0.0 0.0 0.0 0.0 0.0 0.0 0.0 0.0 0.0 0.0
0.0 0.0 0.0 0.0 0.0 0.0 0.0 0.0 0.0 0.0 0.0 0.0 0.0 0.0 0.0 0.0 0.0 0.0 0.0 0.0 0.0 0.0 0.0 0.0 0.0 0.0 0.0 0.0 0.0 0.0 0.0 0.0 0.0 0.0 0.0 0.0 0.0 0.0 0.0 0.0 0.0 0.0 0.0 0.0
0.0 0.0 0.0 0.0 0.0 0.0 0.0 0.0 0.0 0.0 0.0 0.0 0.0 0.0 0.0 0.0 0.0 0.0 0.0 0.0 0.0 0.0 0.0 0.0 0.0 0.0 0.0 0.0 0.0 0.0 0.0 0.0 0.0 0.0 0.0 0.0 0.0 0.0 0.0 0.0 0.0 0.0 0.0 0.0
0.0 0.0 0.0 0.0 0.0 0.0 0.0 0.0 0.2 0.1 0.2 0.1 0.0 0.0 0.0 0.0 0.0 0.0 0.0 0.0 0.0 0.0 0.0 0.0 0.0 0.0 0.0 0.0 0.0 0.0 0.0 0.0 0.0 0.0 0.0 0.0 0.0 0.0 0.0 0.0 0.0 0.0 0.0 0.0
0.0 0.0 0.0 0.0 0.0 0.0 0.0 0.0 0.1 0.1 0.3 0.0 0.0 0.2 0.0 0.0 0.0 0.0 0.0 0.0 0.0 0.0 0.0 0.0 0.0 0.0 0.0 0.0 0.0 0.0 0.0 0.0 0.0 0.0 0.0 0.0 0.0 0.0 0.0 0.0 0.0 0.0 0.0 0.0
0.0 0.0 0.0 0.0 0.0 0.0 0.0 0.0 0.0 0.0 0.0 0.1 0.0 0.0 0.0 0.0 0.0 0.0 0.0 0.0 0.0 0.0 0.0 0.0 0.0 0.0 0.0 0.0 0.0 0.0 0.0 0.0 0.0 0.0 0.0 0.0 0.0 0.0 0.0 0.0 0.0 0.0 0.0 0.0
0.0 0.0 0.0 0.0 0.0 0.0 0.0 0.0 1.1 0.8 0.9 0.1 0.0 0.0 0.2 0.0 0.0 0.0 0.0 0.0 0.0 0.0 0.0 0.0 0.0 0.0 0.0 0.0 0.0 0.0 0.0 0.0 0.0 0.0 0.0 0.0 0.0 0.0 0.0 0.0 0.0 0.0 0.0 0.0
0.0 0.0 0.0 0.0 0.0 0.0 0.0 0.0 0.0 0.1 0.2 0.6 0.7 1.0 0.0 0.0 0.0 0.0 0.0 0.0 0.0 0.0 0.0 0.0 0.0 0.0 0.0 0.0 0.0 0.0 0.0 0.0 0.0 0.0 0.0 0.0 0.0 0.0 0.0 0.0 0.0 0.0 0.0 0.0
0.0 0.0 0.0 0.0 0.0 0.0 0.0 0.0 0.0 2.0 0.2 0.1 0.4 0.6 0.0 0.0 0.0 0.0 0.0 0.0 0.0 0.0 0.0 0.0 0.0 0.0 0.0 0.0 0.0 0.0 0.0 0.0 0.0 0.0 0.0 0.0 0.0 0.0 0.0 0.0 0.0 0.0 0.0 0.0
0.0 0.1 0.1 0.0 0.0 0.0 0.0 0.0 0.0 0.0 0.1 1.4 3.7 0.4 0.0 0.0 0.0 0.0 0.0 0.0 0.0 0.0 0.0 0.0 0.0 0.0 0.0 0.0 0.0 0.0 0.0 0.0 0.0 0.0 0.0 0.0 0.0 0.0 0.0 0.0 0.0 0.0 0.0 0.0
nan 0.0 0.0 0.3 0.1 0.0 0.1 0.0 0.0 0.7 4.4 1.9 0.4 0.0 0.0 0.0 0.0 0.0 0.0 0.0 0.0 0.0 0.0 0.0 0.0 0.0 0.0 0.0 0.0 0.0 0.0 0.0 0.0 0.0 0.0 0.0 0.0 0.0 0.0 0.0 0.0 0.0 0.0 0.0
0.0 0.1 0.0 0.0 0.0 0.0 0.1 0.0 0.0 0.2 0.1 2.3 0.0 0.2 0.0 0.0 0.0 0.0 0.0 0.0 0.0 0.0 0.0 0.0 0.0 0.0 0.0 0.0 0.0 0.0 0.0 0.0 0.0 0.0 0.0 0.0 0.0 0.0 0.0 0.0 0.0 0.0 0.0 0.0
0.0 0.3 0.0 0.0 0.0 0.0 0.0 0.0 0.0 0.0 0.0 0.0 0.0 0.2 0.0 0.0 0.0 0.4 0.0 0.0 0.0 0.0 0.0 0.0 0.0 0.0 0.0 0.0 0.0 0.0 0.0 0.0 0.0 0.0 0.0 0.0 0.0 0.0 0.0 0.0 0.0 0.0 0.0 0.0
0.3 1.1 0.9 0.4 0.0 0.1 0.1 0.1 0.0 0.0 0.0 0.0 0.2 0.0 0.0 0.4 0.2 0.3 0.0 0.0 0.0 0.1 0.1 0.1 0.1 0.1 0.0 0.1 0.0 0.0 0.0 0.0 0.0 0.0 0.0 0.0 0.0 0.0 0.0 0.0 0.0 0.0 0.0 0.0
0.5 0.6 0.7 1.4 0.3 2.5 0.0 0.1 0.5 0.0 0.2 0.1 0.2 0.1 0.1 0.2 0.2 0.0 0.0 0.0 0.1 0.2 0.4 0.3 0.4 0.3 0.2 0.2 0.2 0.0 0.0 0.0 0.0 0.0 0.0 0.0 0.0 0.1 0.0 0.0 0.0 0.0 0.0 0.0
0.0 0.4 3.2 4.3 1.9 0.2 0.0 1.0 3.0 2.1 1.9 1.2 0.8 0.1 0.3 0.1 0.0 0.2 0.2 0.3 0.7 0.8 0.6 2.7 0.4 0.3 0.5 0.6 0.4 0.4 0.3 0.2 0.1 0.3 0.5 0.6 0.0 0.2 0.2 0.3 0.2 0.0 0.0 0.0
0.0 0.0 1.0 1.5 5.1 3.6 2.8 0.2 0.0 1.1 2.6 0.6 0.5 0.1 0.0 0.0 0.0 0.4 0.2 0.5 1.1 1.4 1.1 0.8 1.8 1.7 0.8 1.2 0.8 0.6 1.1 0.6 1.0 0.5 0.6 0.5 0.6 0.7 2.1 1.6 0.6 0.5 0.6 0.4
0.3 0.6 1.3 1.2 3.6 2.0 1.3 0.4 0.8 3.8 2.8 0.4 0.0 0.0 0.0 0.1 0.2 1.3 1.6 2.0 3.0 1.0 0.8 0.8 0.4 0.9 1.7 1.5 1.9 2.4 2.4 2.0 1.7 1.4 1.2 1.0 1.2 1.5 0.9 0.8 1.2 1.5 1.3 1.5
1.2 1.5 1.2 1.5 4.4 6.3 0.2 0.3 2.6 2.5 1.1 0.1 0.0 0.0 0.0 0.2 0.5 2.4 3.2 4.5 3.6 2.4 0.6 0.4 0.8 0.6 0.3 0.2 0.4 2.4 3.2 3.6 2.9 2.4 2.6 2.5 1.9 2.2 2.3 2.2 2.3 2.0 2.0 1.9
8.7 5.7 6.6 1.6 4.7 1.3 0.7 1.0 0.8 0.7 0.3 0.2 0.1 0.1 0.1 0.3 2.1 2.5 3.5 4.3 5.8 3.0 0.3 0.1 0.3 0.2 0.1 0.2 0.1 0.7 1.4 1.4 2.3 2.4 3.5 3.7 2.8 2.9 2.6 2.5 2.8 3.1 3.3 3.5
0.1 0.2 3.4 1.6 1.0 0.7 1.0 0.5 0.3 0.2 0.2 0.2 0.1 0.0 0.7 3.0 4.9 7.3 8.3 6.9 5.3 3.4 0.9 0.3 0.1 0.0 0.2 0.3 0.4 0.0 0.0 0.1 0.4 0.8 0.9 1.4 1.8 2.1 1.6 1.7 2.3 2.1 3.4 3.8
0.1 0.1 0.6 1.6 1.1 0.5 0.3 0.6 0.3 0.4 0.4 0.5 0.5 0.4 0.6 1.3 2.4 1.0 1.4 2.4 3.4 3.8 2.1 0.6 0.4 0.4 0.6 0.2 0.2 0.3 0.3 0.1 0.2 0.4 0.6 0.8 0.9 1.3 1.5 1.8 2.0 1.9 2.8 2.6
0.4 2.2 2.7 2.8 0.6 0.7 1.2 0.5 0.4 0.5 0.6 0.7 0.2 0.3 0.5 0.6 1.2 1.7 1.9 1.5 1.2 1.9 1.9 1.5 1.4 1.2 0.6 0.3 0.4 0.4 0.2 0.1 0.1 0.1 0.4 1.0 0.8 0.9 0.8 0.8 1.8 nan nan nan
Water_Equivalent
0.00 0.00 0.00 0.00 0.00 0.00 0.00 0.00 0.00 0.00 0.00 0.00 0.00 0.00 0.00 0.00 0.00 0.00 0.00 0.00 0.00 0.00 0.00 0.00 0.00 0.00 0.00 0.00 0.00 0.00 0.00 0.00 0.00 0.00 0.00 0.00 0.00 0.00 0.00 0.00 0.00 0.00 0.00 0.00
0.00 0.00 0.00 0.00 0.00 0.00 0.00 0.00 0.00 0.00 0.00 0.00 0.00 0.00 0.00 0.00 0.00 0.00 0.00 0.00 0.00 0.00 0.00 0.00 0.00 0.00 0.00 0.00 0.00 0.00 0.00 0.00 0.00 0.00 0.00 0.00 0.00 0.00 0.00 0.00 0.00 0.00 0.00 0.00
0.00 0.00 0.00 0.00 0.00 0.00 0.00 0.00 0.00 0.00 0.00 0.00 0.00 0.00 0.00 0.00 0.00 0.00 0.00 0.00 0.00 0.00 0.00 0.00 0.00 0.00 0.00 0.00 0.00 0.00 0.00 0.00 0.00 0.00 0.00 0.00 0.00 0.00 0.00 0.00 0.00 0.00 0.00 0.00
0.00 0.00 0.00 0.00 0.00 0.00 0.00 0.00 0.00 0.00 0.00 0.00 0.00 0.00 0.00 0.00 0.00 0.00 0.00 0.00 0.00 0.00 0.00 0.00 0.00 0.00 0.00 0.00 0.00 0.00 0.00 0.00 0.00 0.00 0.00 0.00 0.00 0.00 0.00 0.00 0.00 0.00 0.00 0.00
0.00 0.00 0.00 0.00 0.00 0.00 0.00 0.00 0.00 0.00 0.00 0.00 0.00 0.00 0.00 0.00 0.00 0.00 0.00 0.00 0.00 0.00 0.00 0.00 0.00 0.00 0.00 0.00 0.00 0.00 0.00 0.00 0.00 0.00 0.00 0.00 0.00 0.00 0.00 0.00 0.00 0.00 0.00 0.00
0.00 0.00 0.00 0.00 0.00 0.00 0.00 0.00 0.00 0.00 0.00 0.00 0.00 0.00 0.00 0.00 0.00 0.00 0.00 0.00 0.00 0.00 0.00 0.00 0.00 0.00 0.00 0.00 0.00 0.00 0.00 0.00 0.00 0.00 0.00 0.00 0.00 0.00 0.00 0.00 0.00 0.00 0.00 0.00
0.00 0.00 0.00 0.00 0.00 0.00 0.00 0.00 0.03 0.01 0.05 0.01 0.00 0.00 0.00 0.00 0.00 0.00 0.00 0.00 0.00 0.00 0.00 0.00 0.00 0.00 0.00 0.00 0.00 0.00 0.00 0.00 0.00 0.00 0.00 0.00 0.00 0.00 0.00 0.00 0.00 0.00 0.00 0.00
0.00 0.00 0.00 0.00 0.00 0.00 0.00 0.00 0.01 0.02 0.07 0.01 0.00 0.03 0.01 0.00 0.00 0.00 0.00 0.00 0.00 0.00 0.00 0.00 0.00 0.00 0.00 0.00 0.00 0.00 0.00 0.00 0.00 0.00 0.00 0.00 0.00 0.00 0.00 0.00 0.00 0.00 0.00 0.00
0.00 0.00 0.00 0.00 0.00 0.00 0.00 0.01 0.00 0.00 0.00 0.02 0.00 0.00 0.00 0.00 0.00 0.00 0.00 0.00 0.00 0.00 0.00 0.00 0.00 0.00 0.00 0.00 0.00 0.00 0.00 0.00 0.00 0.00 0.00 0.00 0.00 0.00 0.00 0.00 0.00 0.00 0.00 0.00
0.00 0.00 0.00 0.00 0.00 0.00 0.00 0.00 0.22 0.16 0.12 0.02 0.00 0.00 0.03 0.00 0.00 0.00 0.00 0.00 0.00 0.00 0.00 0.00 0.00 0.00 0.00 0.00 0.00 0.00 0.00 0.00 0.00 0.00 0.00 0.00 0.00 0.00 0.00 0.00 0.00 0.00 0.00 0.00
0.00 0.00 0.00 0.00 0.00 0.00 0.00 0.00 0.01 0.01 0.03 0.09 0.13 0.20 0.00 0.00 0.00 0.00 0.00 0.00 0.00 0.00 0.00 0.00 0.00 0.00 0.00 0.00 0.00 0.00 0.00 0.00 0.00 0.00 0.00 0.00 0.00 0.00 0.00 0.00 0.00 0.00 0.00 0.00
0.00 0.00 0.00 0.00 0.00 0.00 0.00 0.00 0.00 0.34 0.04 0.02 0.11 0.14 0.00 0.00 0.00 0.00 0.00 0.00 0.00 0.00 0.00 0.00 0.00 0.00 0.00 0.00 0.00 0.00 0.00 0.00 0.00 0.00 0.00 0.00 0.00 0.00 0.00 0.00 0.00 0.00 0.00 0.00
0.00 0.03 0.02 0.00 0.00 0.00 0.00 0.00 0.00 0.00 0.02 0.20 0.64 0.06 0.00 0.00 0.00 0.00 0.00 0.00 0.00 0.00 0.00 0.00 0.00 0.00 0.00 0.00 0.00 0.00 0.00 0.00 0.00 0.00 0.00 0.00 0.00 0.00 0.00 0.00 0.00 0.00 0.00 0.00
nan 0.00 0.01 0.06 0.02 0.00 0.01 0.00 0.00 0.16 0.77 0.39 0.09 0.01 0.00 0.00 0.00 0.00 0.00 0.00 0.00 0.00 0.00 0.00 0.00 0.00 0.00 0.00 0.00 0.00 0.00 0.00 0.00 0.00 0.00 0.00 0.00 0.00 0.00 0.00 0.00 0.00 0.00 0.00
0.01 0.02 0.00 0.00 0.00 0.00 0.02 0.00 0.00 0.03 0.02 0.35 0.01 0.03 0.00 0.00 0.01 0.00 0.00 0.00 0.00 0.00 0.00 0.00 0.00 0.00 0.00 0.00 0.00 0.00 0.00 0.00 0.00 0.00 0.00 0.00 0.00 0.00 0.00 0.00 0.00 0.00 0.00 0.00
0.01 0.06 0.01 0.01 0.00 0.00 0.00 0.00 0.00 0.00 0.00 0.00 0.00 0.04 0.00 0.00 0.00 0.12 0.00 0.00 0.00 0.00 0.00 0.00 0.00 0.00 0.00 0.00 0.00 0.00 0.00 0.00 0.00 0.00 0.00 0.00 0.00 0.00 0.00 0.00 0.00 0.00 0.00 0.00
0.05 0.24 0.16 0.05 0.00 0.01 0.03 0.02 0.00 0.00 0.00 0.00 0.04 0.01 0.00 0.09 0.04 0.07 0.00 0.00 0.00 0.01 0.03 0.03 0.02 0.02 0.01 0.02 0.00 0.00 0.00 0.00 0.00 0.00 0.00 0.00 0.00 0.00 0.00 0.00 0.00 0.00 0.00 0.00
0.10 0.10 0.16 0.34 0.06 0.34 0.00 0.01 0.12 0.00 0.05 0.03 0.04 0.02 0.02 0.02 0.03 0.00 0.00 0.00 0.02 0.04 0.12 0.07 0.09 0.09 0.06 0.06 0.06 0.00 0.00 0.00 0.00 0.00 0.00 0.00 0.00 0.02 0.00 0.00 0.00 0.00 0.00 0.00
0.00 0.07 0.54 0.72 0.36 0.05 0.00 0.16 0.49 0.32 0.27 0.22 0.14 0.02 0.05 0.02 0.00 0.05 0.04 0.06 0.14 0.19 0.17 0.86 0.10 0.07 0.14 0.15 0.10 0.09 0.07 0.04 0.02 0.06 0.09 0.11 0.00 0.03 0.03 0.06 0.04 0.01 0.00 0.01
0.01 0.00 0.20 0.25 0.57 0.58 0.68 0.05 0.00 0.22 0.34 0.09 0.08 0.02 0.00 0.00 0.01 0.10 0.05 0.11 0.27 0.34 0.26 0.18 0.60 0.54 0.21 0.34 0.20 0.14 0.24 0.17 0.33 0.19 0.17 0.15 0.19 0.14 0.40 0.29 0.10 0.09 0.12 0.08
0.09 0.12 0.25 0.24 0.50 0.48 0.29 0.11 0.13 0.48 0.39 0.06 0.01 0.00 0.00 0.01 0.03 0.30 0.41 0.45 0.72 0.22 0.18 0.19 0.09 0.22 0.53 0.49 0.60 0.57 0.50 0.39 0.35 0.32 0.38 0.32 0.34 0.52 0.31 0.26 0.38 0.39 0.30 0.27
0.16 0.24 0.30 0.25 0.57 0.73 0.03 0.06 0.30 0.37 0.17 0.02 0.00 0.01 0.01 0.03 0.10 0.48 0.55 0.77 0.73 0.44 0.11 0.07 0.15 0.11 0.06 0.05 0.08 0.67 0.93 0.70 0.55 0.48 0.46 0.60 0.48 0.54 0.63 0.67 0.67 0.46 0.46 0.44
1.34 0.91 0.90 0.22 0.58 0.22 0.11 0.16 0.14 0.12 0.04 0.03 0.01 0.01 0.03 0.08 0.41 0.44 0.53 0.67 0.91 0.52 0.05 0.02 0.05 0.03 0.02 0.03 0.02 0.10 0.22 0.31 0.44 0.41 0.67 0.67 0.50 0.59 0.48 0.47 0.58 0.75 0.83 0.71
0.02 0.04 0.61 0.27 0.15 0.10 0.16 0.07 0.05 0.04 0.03 0.03 0.01 0.00 0.19 0.70 1.05 1.27 1.25 0.85 0.65 0.48 0.13 0.05 0.01 0.00 0.03 0.05 0.06 0.01 0.00 0.01 0.06 0.10 0.12 0.18 0.24 0.27 0.21 0.25 0.33 0.29 0.49 0.58
0.03 0.03 0.10 0.31 0.20 0.09 0.06 0.10 0.05 0.07 0.07 0.09 0.10 0.07 0.11 0.22 0.36 0.15 0.18 0.32 0.42 0.50 0.31 0.08 0.06 0.05 0.07 0.03 0.02 0.04 0.06 0.01 0.02 0.05 0.07 0.10 0.13 0.16 0.19 0.24 0.28 0.29 0.40 0.39
0.09 0.63 0.56 0.47 0.10 0.13 0.21 0.10 0.07 0.09 0.10 0.12 0.04 0.05 0.07 0.10 0.17 0.24 0.24 0.19 0.15 0.24 0.25 0.19 0.18 0.15 0.07 0.04 0.05 0.05 0.03 0.02 0.02 0.03 0.10 0.21 0.17 0.18 0.14 0.14 0.24 nan nan nan
SL_Ratio
nan nan nan nan nan nan nan nan nan nan nan nan nan nan nan nan nan nan nan nan nan nan nan nan nan nan nan nan nan nan nan nan nan nan nan nan nan nan nan nan nan nan nan nan
nan nan nan nan nan nan nan nan nan nan nan nan nan nan nan nan nan nan nan nan nan nan nan nan nan nan nan nan nan nan nan nan nan nan nan nan nan nan nan nan nan nan nan nan
nan nan nan nan nan nan nan nan nan nan nan nan nan nan nan nan nan nan nan nan nan nan nan nan nan nan nan nan nan nan nan nan nan nan nan nan nan nan nan nan nan nan nan nan
nan nan nan nan nan nan nan nan nan nan nan nan nan 6.7 nan nan nan nan nan nan nan nan nan nan nan nan nan nan nan nan nan nan nan nan nan nan nan nan nan nan nan nan nan nan
nan nan nan nan nan nan nan nan nan nan nan nan nan nan nan nan nan nan nan nan nan nan nan nan nan nan nan nan nan nan nan nan nan nan nan nan nan nan nan nan nan nan nan nan
nan nan nan nan nan nan nan nan nan nan nan 0.0 nan nan nan nan nan nan nan nan nan nan nan nan nan nan nan nan nan nan nan nan nan nan nan nan nan nan nan nan nan nan nan nan
nan nan nan nan nan nan nan nan 5.2 4.9 4.4 4.7 nan nan nan nan nan nan nan nan nan nan nan nan nan nan nan nan nan nan nan nan nan nan nan nan nan nan nan nan nan nan nan nan
nan 3.1 nan nan nan nan nan nan 5.0 6.3 3.8 4.4 nan 5.6 2.4 nan nan nan nan nan nan nan nan nan nan nan nan nan nan nan nan nan nan nan nan nan nan nan nan nan nan nan nan nan
nan nan nan nan nan nan 6.7 3.9 nan 4.7 0.0 4.3 nan nan nan nan nan nan nan nan nan nan nan nan nan nan nan nan nan nan nan nan nan nan nan nan nan nan nan nan nan nan nan nan
nan nan nan nan nan nan nan nan 5.1 5.0 7.5 6.6 nan nan 4.6 nan nan nan nan nan nan nan nan nan nan nan nan nan nan nan nan nan nan nan nan nan nan nan nan nan nan nan nan nan
nan 6.7 nan nan nan nan nan 5.5 5.2 4.9 6.9 6.0 5.4 4.9 nan nan nan nan nan nan nan nan nan nan nan nan nan nan nan nan nan nan nan nan nan nan nan nan nan nan nan nan nan nan
nan 5.0 nan nan nan nan nan nan nan 5.8 6.0 5.6 4.1 4.6 nan nan nan nan nan nan nan nan nan nan nan nan nan nan nan nan nan nan nan nan nan nan nan nan nan nan nan nan nan nan
nan 4.8 5.2 3.8 5.0 nan nan nan 4.2 0.0 5.2 6.7 5.8 6.5 nan nan nan nan nan nan nan nan nan nan nan nan nan nan nan nan nan nan nan nan nan nan nan nan nan nan nan nan nan nan
nan nan 7.2 5.9 5.2 nan 6.4 nan nan 4.6 5.7 5.0 4.5 5.3 nan nan nan nan nan nan nan nan nan nan nan nan nan nan nan nan nan nan nan nan nan nan nan nan nan nan nan nan nan nan
5.0 5.6 nan nan nan 0.0 5.3 nan 10.0 5.5 5.8 6.5 5.7 5.6 3.1 0.0 2.7 2.9 nan nan nan nan nan nan nan nan nan nan nan nan nan nan nan nan nan nan nan nan nan nan nan nan nan nan
4.4 5.3 6.9 5.7 nan nan nan nan nan 3.3 nan 5.0 nan 4.2 0.0 0.0 2.7 3.2 6.7 nan nan nan nan nan nan nan nan nan nan nan nan nan nan nan nan nan nan nan nan nan nan nan nan nan
5.2 4.4 5.3 7.4 nan 6.7 4.2 6.7 6.3 nan nan nan 5.6 5.0 nan 4.5 5.7 4.9 6.3 nan 10.0 4.0 3.7 3.2 3.3 4.2 3.6 3.5 2.3 nan nan nan nan nan nan nan nan nan nan nan nan nan nan nan
5.1 5.5 4.6 4.2 5.7 7.2 3.6 5.0 3.9 nan 4.2 3.8 5.2 4.7 5.8 6.5 6.6 7.0 7.5 6.7 5.3 4.8 3.5 4.4 4.1 3.9 3.9 3.5 4.0 5.0 4.3 nan 4.0 6.0 0.0 nan 6.0 5.9 6.7 3.3 nan nan nan nan
nan 5.2 6.0 6.0 5.2 4.2 5.7 6.1 6.1 6.4 7.0 5.3 6.0 5.7 6.4 6.7 nan 4.5 4.1 4.6 4.9 4.3 3.7 3.1 4.2 3.9 3.7 4.1 3.7 4.1 3.6 4.4 4.7 5.0 5.7 5.4 5.5 6.0 5.6 5.7 5.7 3.8 3.3 2.9
6.3 6.4 5.0 6.0 9.0 6.1 4.1 3.7 4.3 4.9 7.7 6.0 6.3 7.0 4.0 10.0 5.5 4.3 4.3 4.3 4.2 4.2 4.3 4.5 2.9 3.2 4.1 3.5 4.0 4.3 4.6 3.2 3.2 2.8 3.4 3.3 3.2 5.1 5.2 5.6 5.4 5.2 5.5 5.2
3.6 5.0 5.0 5.2 7.2 4.2 4.6 3.8 5.8 7.9 7.1 6.6 7.2 7.5 nan 7.8 7.2 4.3 4.0 4.4 4.2 4.6 4.5 4.1 4.5 4.1 3.2 3.1 3.1 4.2 4.9 5.1 4.9 4.3 3.2 3.2 3.4 2.9 2.9 3.2 3.1 3.8 4.2 5.7
7.6 6.2 4.1 6.0 7.8 8.8 6.3 5.4 8.6 6.7 6.3 7.1 7.3 7.4 8.1 6.3 5.7 5.1 5.8 5.9 4.9 5.4 5.2 5.2 5.2 5.5 4.9 4.6 4.6 3.6 3.5 5.1 5.4 5.1 5.6 4.1 3.9 4.1 3.6 3.2 3.4 4.3 4.4 4.3
6.5 6.3 7.4 7.5 8.0 6.0 6.2 6.5 5.9 6.1 6.6 7.0 7.5 6.1 3.3 3.9 5.1 5.7 6.5 6.5 6.4 5.8 5.9 5.8 6.0 6.4 6.6 6.0 5.6 6.3 6.3 4.7 5.2 5.8 5.1 5.5 5.5 4.9 5.3 5.3 4.9 4.2 4.0 4.9
5.1 6.2 5.6 6.2 6.3 6.8 6.4 6.3 6.3 6.2 7.0 7.0 7.3 8.8 3.6 4.4 4.7 5.7 6.7 8.2 8.1 7.0 6.9 6.8 7.6 8.9 8.2 7.4 6.7 5.6 7.1 7.0 6.7 7.6 8.0 7.9 7.4 7.6 7.7 6.8 6.9 7.2 6.9 6.6
4.5 3.4 6.8 5.3 5.4 5.5 5.7 5.9 5.7 5.7 5.6 5.6 5.3 5.5 5.6 5.8 6.7 6.8 7.4 7.6 8.1 7.6 6.9 7.1 7.8 8.3 8.2 7.9 7.8 7.1 6.1 6.3 7.7 8.1 8.1 8.0 7.3 8.1 7.8 7.4 7.4 6.5 7.1 6.7
4.3 3.4 4.9 6.0 5.6 5.1 5.7 5.2 5.5 5.7 5.9 5.6 5.8 6.3 6.4 6.3 7.0 7.2 8.0 7.9 8.0 7.8 7.5 7.8 7.7 8.0 8.1 7.3 7.2 7.1 6.6 6.8 5.8 4.8 4.4 4.6 4.4 4.9 5.9 5.9 7.3 nan nan nan